Flag for Poland Weather past 2 weeks in Gorzów Wielkopolski, Poland

Now
33 °F

Fog.


Feels Like: 33 °F
Forecast: 44 / 55 °F
Wind: 2 mph from Southeast

Location: Gorzow Wlkp

Current Time: Oct 25, 2014 at 6:25:13 AM

Latest Report: Oct 25, 2014 at 5:00 AM


Visibility: 2 mi

Pressure: 30.23 "Hg

Humidity: 96%

Dew point: 32 °F

Location of Gorzów WielkopolskiLocation

Historic Weather in Gorzów Wielkopolski — Graph

°F

Gorzów Wielkopolski temperature yesterday

Maximum temperature yesterday: 44 °F (at 5:00 PM)
Minimum temperature yesterday: 39 °F (at 7:00 PM)
Average temperature yesterday: 41 °F

Past Weeks' High & Low Weather Summary

 TemperatureHumidityPressure
High70 °F (Oct 19, 4:00 PM)100% (Oct 16, 4:00 AM)30.33 "Hg (Oct 16, 4:00 AM)
Low35 °F (Oct 25, 4:00 AM)64% (Oct 10, 1:00 PM)29.47 "Hg (Oct 22, 12:00 AM)
Average54 °F91%29.92 "Hg
* Reported Oct 10 4:00 AM — Oct 25 4:00 AM, Gorzów Wielkopolski, Weather by CustomWeather, © 2014

Note: Actual official high and low records may vary slightly from our data, if they occured in-between our weather recording intervals... More about our weather records

Advertising

Gorzów Wielkopolski weather history for previous 24 hours

 ConditionsComfort  
Time TempWeatherWind HumidityBarometerVisibility
4:00 AM
Oct 25
35 °FFog.3 mph95%30.23 "Hg2 mi
3:00 AM36 °FFog.3 mph94%30.25 "Hg2 mi
2:00 AM38 °FFog.3 mph94%30.25 "Hg1 mi
1:00 AM40 °FFog.2 mph93%30.26 "Hg2 mi
12:00 AM41 °FFog.3 mph92%30.27 "Hg2 mi
11:00 PM
Oct 24
41 °FFog.2 mph93%30.27 "Hg1 mi
10:00 PM40 °FFog.2 mph94%30.28 "Hg1 mi
9:00 PM40 °FFog.2 mph95%30.28 "Hg1 mi
8:00 PM40 °FFog.2 mph95%30.28 "Hg1 mi
7:00 PM39 °FFog.3 mph95%30.29 "Hg1 mi
6:00 PM40 °FFog.3 mph93%30.28 "Hg2 mi
5:00 PM44 °FFog.5 mph87%30.27 "Hg3 mi
4:00 PM44 °FFog.2 mph88%30.28 "Hg3 mi
3:00 PM42 °FFog.2 mph93%30.30 "Hg2 mi
2:00 PM41 °FFog.3 mph96%30.32 "Hg1 mi
1:00 PM41 °FFog.3 mph97%30.33 "Hg1 mi
12:00 PM41 °FLow clouds.3 mph97%30.33 "Hg1 mi
11:00 AM41 °FDrizzle. Low clouds.2 mph98%30.33 "Hg1 mi
10:00 AM42 °FDrizzle. Low clouds.2 mph97%30.32 "Hg0 mi
9:00 AM42 °FDrizzle. Low clouds.3 mph97%30.32 "Hg2 mi
8:00 AM42 °FDrizzle. Low clouds.3 mph97%30.31 "Hg2 mi
7:00 AM42 °FDrizzle. Low clouds.3 mph97%30.30 "Hg2 mi
6:00 AM42 °FDrizzle. Low clouds.2 mph98%30.29 "Hg2 mi
Weather by CustomWeather, © 2014

See weather overviewHow to use our weather pages